Location: Newark
(39.2833°N, 16.3333°E)
Time: 07:04:24
(UTC+00:00)

N. Korean satellite - Visible Passes

Search period start: 18 October 2019 00:00
Search period end: 28 October 2019 00:00
Orbit: 455 x 508 km, 97.2° (Epoch: 18 October)

Date Brightness Start Highest point End Pass type
(mag) Time Alt. Az. Time Alt. Az. Time Alt. Az.
18 Oct 9.4 04:07:54 10° NE 04:10:49 23° E 04:13:45 10° SSE visible
19 Oct 10.4 03:44:15 10° ENE 03:45:22 11° E 03:46:28 10° ESE visible
20 Oct 10.0 16:59:13 10° SW 17:01:21 16° W 17:03:29 10° NW visible
21 Oct 8.3 04:24:57 10° NNE 04:28:23 38° E 04:31:50 10° SSE visible
21 Oct 8.6 16:32:48 10° SSW 16:35:55 33° W 16:39:04 10° NNW visible
22 Oct 9.8 04:00:20 10° NE 04:02:59 19° E 04:05:37 10° SE visible
24 Oct 7.0 04:42:14 10° NNE 04:45:52 69° E 04:49:33 10° S visible
24 Oct 9.7 16:50:52 10° SW 16:53:26 20° W 16:56:02 10° NW visible
25 Oct 8.8 04:17:13 10° NNE 04:20:31 31° E 04:23:50 10° SSE visible
26 Oct 10.1 03:52:51 10° NE 03:55:05 15° E 03:57:19 10° SE visible
27 Oct 10.3 17:09:40 10° WSW 17:10:59 12° W 17:12:19 10° WNW visible
